Погода в Хамнее

Россия / Республика Бурятия     50°24′09″N   103°52′03″E
темп.,
°C
ветер,
м/с
пор.,
м/с
влажн.,
%
обл.,
%
осадки,
мм/ч
давл.,
гПа
погр.,
м
26 июня, вс
вс2623:00+11св119222 0.1 100811
02:00+10ссз11945 0.1 100916
05:00+9ссз11955 0.0 101016
08:00+14з11825 0.0 1011258
11:00+21ююв11430 0.0 10081277
14:00+26ю133045 0.0 10062558
17:00+26юв132982 0.0 10052694
20:00+21вюв225123 0.0 100627
27 июня, пн
пн2723:00+14всв11666 0.0 100811
02:00+12с01755 0.0 100910
05:00+11сз118221 0.0 101010
08:00+18з115654 0.0 1008267
11:00+26зюз12345 0.0 1005939
14:00+31зюз13225 0.0 10022965
17:00+31с022098 0.0 10003487
20:00+20юв225791 0.1 100363
28 июня, вт
вт2823:00+16всв116877 0.0 100411
02:00+13всв11784 0.0 100611
05:00+12ссз11808 0.0 100510
08:00+19з1157100 0.0 1004213
11:00+27ю1134100 0.0 1001662
14:00+32ююв0220100 0.0 9982726
17:00+32вюв3318100 0.0 9973327
20:00+24св234681 0.0 99951
29 июня, ср
ср2923:00+18всв11606 0.0 100112
02:00+17ссз226394 0.0 100230
05:00+14св117846 0.0 100212
08:00+21св01575 0.0 1002311
11:00+27ююв243930 0.3 1000933
14:00+33юв362099 0.3 9963955
17:00+31ссв1325100 0.1 9942137
20:00+17сз4782100 0.6 1001274
30 июня, чт
чт3023:00+14юв1295100 13.9 100570
02:00+13сз239897 13.9 100686
05:00+12сз129830 0.0 100739
08:00+15ссз128597 0.0 1007481
11:00+20з21589 0.0 1006915
14:00+25з22420 0.0 10031396
17:00+27ссз12330 0.0 10011639
20:00+23вюв11490 0.0 100111